Theta_e
336 336 336 337 337 336 333 333 335 334 335 335 336 338 337 338 340 337 338 337 336 338 336 335 336 335 332 330 330 331 331 332 330 326 328 328 327 331 330 329 330 329 327 328 329 329 329 330 329 329 329 328 329 328 328 327 327 327 327 327 326 326 326 326 326 326 326 326 326 326 326 325 325 325 324 324 324 324 324 324 324 323 323 323 323
335 333 333 336 336 337 336 335 334 335 333 335 335 336 336 337 337 337 335 335 335 334 336 336 335 334 331 331 330 331 332 330 330 329 329 332 330 328 329 329 329 329 329 329 329 329 329 329 329 329 329 329 329 328 327 327 326 326 326 326 326 326 326 326 326 326 326 326 326 326 325 324 324 324 324 324 324 323 323 323 323 323 323 323 323
336 335 334 334 337 337 335 334 335 336 335 335 337 337 339 336 336 338 338 337 335 334 333 335 336 333 334 331 331 333 331 332 330 328 328 331 334 331 329 329 329 329 328 328 328 329 329 328 329 328 328 328 327 328 327 327 326 326 325 325 325 325 325 325 325 326 325 325 325 324 324 324 324 324 324 324 323 323 323 322 323 323 323 322 322
336 334 335 332 333 334 336 335 333 334 336 335 335 337 338 337 337 339 340 340 337 335 334 335 335 334 333 331 331 331 330 330 328 328 328 331 332 334 332 327 329 328 328 328 327 328 328 327 327 328 328 328 328 327 328 326 326 326 325 325 325 326 326 325 325 325 325 325 324 324 324 324 323 323 323 323 323 323 323 323 323 322 322 322 322
336 335 333 331 332 334 334 336 336 336 337 336 334 338 337 338 337 338 338 339 338 336 331 336 336 335 335 335 336 331 330 330 330 330 328 329 331 331 334 332 328 328 328 328 327 326 327 327 327 327 327 328 328 328 327 327 326 326 326 325 325 325 325 325 325 325 324 324 324 324 323 323 324 323 323 323 323 322 322 322 322 322 321 321 321
332 335 332 332 334 334 334 335 335 337 337 338 335 335 334 335 336 336 336 337 335 336 333 333 333 334 337 335 334 336 333 330 330 329 329 329 330 332 331 333 333 331 327 325 325 326 326 326 326 327 327 327 327 327 327 327 327 326 326 325 325 325 325 324 324 324 324 324 324 324 323 324 323 323 323 323 322 321 321 321 322 321 321 321 320
330 332 332 333 331 332 333 335 337 338 335 335 334 334 334 334 334 334 337 336 333 333 333 333 332 332 335 337 334 331 334 332 331 329 328 329 332 330 332 332 330 332 332 328 325 325 326 326 326 326 326 327 327 327 327 327 327 327 326 326 325 325 325 325 324 324 324 324 324 324 324 323 323 323 323 322 322 321 321 321 321 320 320 319 319
330 330 331 331 329 330 332 336 337 338 336 335 335 333 333 334 337 335 336 332 333 333 335 333 334 332 334 336 336 335 336 334 333 329 329 331 330 331 332 331 332 328 329 332 333 327 325 325 325 325 326 325 326 325 326 326 327 327 327 326 325 325 325 325 324 324 324 324 324 324 324 324 323 322 322 322 321 321 320 320 320 320 320 320 319
330 329 333 333 330 331 331 335 337 337 338 338 335 334 334 333 338 337 338 335 332 331 333 334 334 334 335 334 335 336 336 336 335 334 331 330 330 329 329 330 331 325 331 328 333 332 328 326 325 324 325 325 325 325 325 326 326 326 326 326 325 325 325 324 324 324 324 324 324 324 324 323 323 323 322 322 322 322 321 320 320 320 320 320 319
330 329 332 332 330 330 332 334 334 336 339 339 339 340 341 340 340 339 336 336 334 332 332 333 331 330 333 331 337 336 337 337 337 335 333 329 330 329 330 330 331 331 331 331 329 333 333 329 328 326 325 324 325 326 325 326 325 326 326 326 326 326 325 325 324 324 325 325 324 324 324 324 323 323 323 322 322 322 323 322 321 320 320 320 319
330 332 332 330 331 331 332 334 335 334 336 337 338 338 342 342 340 339 339 335 335 335 334 335 332 329 329 332 336 335 338 337 336 334 334 333 330 329 329 331 329 330 332 331 330 329 333 334 331 332 330 326 324 325 326 326 326 326 326 326 326 326 326 326 325 325 325 325 325 325 324 324 323 324 323 323 322 322 322 322 321 321 320 320 320
329 329 332 331 330 332 333 333 334 334 335 334 334 336 339 340 338 334 336 335 335 335 335 333 333 334 334 334 334 334 333 335 334 332 334 335 334 332 330 330 331 330 330 330 331 330 330 330 333 332 334 330 327 326 325 326 326 326 327 327 327 327 328 328 327 325 325 326 326 326 325 325 324 324 324 324 323 323 322 322 322 321 321 320 321
326 326 328 330 331 331 333 332 332 332 333 335 338 337 340 339 337 337 334 335 333 335 333 333 331 331 334 332 334 334 333 333 332 332 332 334 336 334 332 331 331 331 330 330 330 330 332 331 329 330 332 335 330 329 327 326 326 326 327 328 328 328 328 328 328 327 326 326 326 326 326 326 325 324 325 325 325 325 324 323 323 322 322 322 322
325 326 327 327 330 328 330 332 332 333 334 334 335 338 338 338 336 333 332 332 334 334 333 332 329 325 324 326 330 333 335 333 330 330 331 332 334 334 334 331 329 331 332 332 331 329 329 331 331 330 330 332 334 333 330 329 328 327 327 328 328 329 329 329 329 328 327 326 326 327 326 326 326 326 325 325 325 325 325 324 324 323 323 322 322
325 324 325 324 327 330 331 333 333 332 331 332 333 333 334 332 333 330 329 330 332 336 336 333 327 329 329 326 320 322 330 331 331 329 328 330 332 331 331 330 329 330 331 331 331 331 328 329 330 330 330 330 330 331 332 331 332 329 328 328 328 329 330 330 330 329 328 328 327 326 327 327 327 327 327 326 326 325 325 325 325 325 324 324 324
325 323 322 324 326 329 330 331 333 334 331 331 332 330 333 332 331 331 330 327 327 329 333 336 332 331 322 320 322 324 320 321 328 331 331 328 329 329 329 328 329 329 330 328 328 331 332 331 330 331 332 331 329 329 330 330 330 331 329 329 328 328 329 330 331 331 330 329 328 327 327 327 328 327 327 327 327 327 327 326 325 326 326 326 325
327 326 324 325 325 327 327 330 330 333 331 327 329 329 329 330 332 331 330 327 325 332 335 334 334 336 327 323 321 319 320 321 322 326 328 325 327 327 328 328 328 328 328 328 329 330 330 330 332 332 333 333 332 330 330 330 330 330 331 330 330 329 329 330 330 332 331 330 329 329 328 328 328 328 328 327 327 327 327 327 326 325 326 326 326
326 326 325 325 326 326 327 327 328 331 330 329 329 329 328 328 329 331 329 330 329 327 331 336 333 336 334 332 331 320 323 325 323 317 328 329 326 325 327 328 328 328 328 328 328 328 330 330 333 334 334 334 332 331 330 330 329 330 332 331 330 330 330 331 331 331 331 331 330 330 329 329 329 328 328 328 328 327 327 327 327 327 326 326 325
328 327 327 326 327 327 327 325 326 329 331 331 329 328 326 326 329 329 328 329 329 325 326 329 333 333 331 332 333 332 329 325 322 322 318 325 328 324 325 326 327 327 327 327 328 328 329 329 329 329 332 335 333 332 332 331 330 329 331 332 331 330 330 331 331 331 331 331 331 330 330 330 329 329 329 328 328 328 328 327 328 327 327 327 326
328 328 328 326 326 326 327 327 324 326 326 328 328 329 328 328 332 330 330 330 329 327 326 326 325 327 330 330 330 330 329 329 328 325 320 320 321 324 325 326 327 327 327 326 327 327 328 329 328 328 329 329 332 332 332 331 331 330 329 330 329 331 331 331 331 332 332 332 331 331 331 331 331 330 330 330 329 328 328 328 328 328 327 327 327
329 329 327 326 326 326 326 326 325 325 324 325 327 328 329 329 331 331 330 328 329 330 328 326 326 324 326 329 327 326 325 326 326 326 322 319 317 318 320 325 327 327 329 328 327 328 328 329 328 328 330 330 331 331 331 332 331 332 332 331 329 329 331 331 331 331 331 332 333 333 332 332 331 331 331 331 330 330 329 329 328 328 328 328 328
330 329 328 327 327 327 325 324 325 324 324 324 326 326 328 329 329 331 331 329 331 331 329 328 328 328 326 326 325 325 324 323 324 324 324 323 318 317 319 319 318 322 328 327 327 327 328 328 329 328 328 330 330 330 331 332 333 330 331 331 331 330 330 330 330 330 330 330 331 332 333 333 333 332 332 332 331 331 331 330 329 328 327 327 328
329 331 329 327 328 328 327 325 326 327 324 324 325 324 324 326 327 329 329 330 328 329 330 330 329 328 326 325 325 324 323 322 323 324 323 322 320 319 320 320 319 319 324 327 328 327 327 326 327 327 328 328 330 329 331 332 330 328 326 329 331 331 330 330 330 330 329 330 329 331 331 333 334 334 333 333 333 332 332 332 331 330 330 329 329
330 331 331 328 329 328 329 327 325 326 324 324 324 323 323 323 326 328 328 328 329 328 329 328 329 328 328 327 326 326 326 325 324 325 325 324 322 320 319 320 320 321 322 325 326 326 325 325 325 326 326 327 327 328 328 329 329 327 328 327 329 329 329 329 330 331 330 330 330 330 331 331 332 333 334 334 334 334 333 333 332 331 332 331 331
328 328 328 329 329 329 329 327 327 328 327 325 324 322 323 323 324 327 327 327 327 327 325 327 328 326 326 328 327 326 325 326 326 324 325 325 324 320 320 320 317 318 321 321 321 324 325 324 325 324 324 325 324 324 325 327 327 328 325 326 325 326 327 328 328 328 329 330 331 331 331 332 331 331 333 333 334 334 334 334 334 333 333 333 332
328 328 327 327 328 329 329 330 329 329 329 328 326 324 324 322 323 325 326 328 328 329 328 328 328 329 329 326 327 326 326 327 327 325 325 323 321 321 320 320 318 316 319 319 322 320 323 324 324 325 324 323 322 322 324 324 327 327 324 326 330 325 326 326 327 327 328 329 329 330 331 331 332 332 332 332 333 334 335 335 334 334 335 334 333
328 330 330 329 330 330 329 330 328 330 329 328 326 326 327 325 325 326 326 327 327 328 327 327 326 326 329 327 326 326 326 326 325 326 324 325 323 322 321 317 316 317 317 317 318 320 321 323 324 322 321 323 322 320 320 321 322 325 325 327 328 326 325 326 326 326 327 328 328 329 329 330 331 331 332 332 332 333 333 334 334 335 335 335 335
332 331 332 332 330 329 329 328 329 329 330 329 328 327 327 327 325 326 326 325 326 326 325 325 326 327 328 329 327 325 326 326 326 325 325 326 324 324 323 320 315 312 314 314 316 317 321 319 320 320 318 317 318 319 320 320 321 325 325 325 325 326 323 324 325 326 326 328 329 330 330 330 330 331 331 332 333 333 333 333 334 334 334 334 334
333 334 334 334 334 332 331 330 331 330 330 329 328 328 328 328 327 326 327 326 326 324 325 325 325 325 326 326 326 325 325 327 327 326 326 327 325 325 323 321 319 315 310 312 315 316 318 317 314 317 319 318 319 319 318 318 320 324 323 324 325 326 322 319 322 325 326 327 329 330 330 331 331 331 331 331 332 332 333 334 333 333 334 334 334
335 334 335 334 335 334 333 331 331 331 331 330 328 328 329 329 329 327 327 328 327 327 326 325 326 325 324 324 325 324 326 327 325 328 327 327 324 321 320 320 321 317 316 312 313 316 314 318 318 314 318 319 318 318 319 319 322 318 317 317 318 321 320 317 317 319 323 325 325 327 327 328 328 329 330 330 331 331 332 332 333 333 333 333 329
336 336 337 335 336 335 335 333 332 331 332 331 330 329 328 328 329 328 328 328 327 326 328 327 327 326 325 322 322 322 325 325 327 326 325 324 324 323 322 322 321 321 318 316 312 315 317 316 317 316 315 319 320 321 319 319 320 320 320 321 319 316 319 322 316 316 316 315 317 319 320 324 326 326 327 328 329 330 331 331 332 332 332 329 325
337 337 336 335 337 336 332 331 330 331 330 330 330 330 331 330 329 329 329 328 326 326 326 327 325 325 326 324 323 322 322 322 323 324 323 324 326 323 323 322 322 322 320 318 315 314 319 320 322 321 321 322 322 321 321 321 320 319 322 321 322 319 320 322 318 314 314 311 312 312 311 316 321 324 325 326 326 327 328 328 326 325 324 323 323
338 337 337 336 335 333 331 331 331 331 331 331 331 332 331 330 329 329 328 327 326 326 326 327 327 326 325 324 324 324 325 324 324 323 322 323 323 324 324 322 321 322 321 319 316 317 321 324 324 323 325 325 322 323 322 323 323 322 321 324 324 324 323 322 322 316 313 312 310 309 308 308 312 317 320 322 323 322 317 315 314 314 317 319 319
340 337 336 337 337 335 333 331 331 331 330 331 331 331 330 329 329 328 328 327 326 326 326 325 326 325 327 325 323 324 325 324 324 323 322 322 322 322 323 322 321 321 323 320 319 318 317 322 322 325 324 326 322 325 324 325 324 324 324 326 326 326 324 325 324 323 313 312 310 309 308 306 306 307 308 311 311 308 307 308 308 309 310 311 312
339 339 338 337 336 335 334 334 332 333 332 331 332 331 330 329 328 329 328 328 327 326 326 326 325 325 325 325 327 326 327 326 326 326 325 324 323 321 321 322 322 321 322 322 321 319 319 319 323 322 324 325 324 324 325 326 326 325 324 324 324 325 326 327 326 325 313 310 309 309 307 306 306 305 306 306 306 306 306 306 306 305 306 306 307
336 337 337 337 336 336 334 334 333 333 334 334 333 331 330 328 329 329 328 328 327 327 326 325 324 324 323 325 326 327 328 326 325 326 328 326 325 324 322 322 322 321 323 324 323 321 320 319 322 322 325 324 326 327 326 327 326 325 325 325 326 325 326 326 327 327 318 310 309 308 307 307 306 306 305 304 305 305 305 305 305 305 305 305 306
336 335 335 336 336 336 336 334 334 334 333 332 330 331 331 332 330 329 328 327 328 327 327 326 326 325 327 326 327 328 326 325 325 325 326 326 325 327 326 324 323 324 323 324 325 324 321 320 321 325 326 326 327 327 326 324 324 325 326 326 326 327 326 327 327 326 319 311 311 309 309 308 307 306 305 305 305 305 305 305 305 305 305 305 305
337 336 337 336 334 333 332 333 335 334 333 332 330 330 330 332 331 329 329 329 328 328 327 329 328 328 328 327 325 326 326 325 323 325 325 325 325 325 325 324 324 326 324 325 325 325 324 322 322 322 326 325 324 326 328 327 325 324 324 326 327 327 328 328 328 327 330 327 327 325 315 311 308 305 305 306 305 305 305 305 305 306 306 305 305
336 336 334 334 334 332 332 334 332 334 333 332 333 332 332 331 330 331 330 330 332 332 331 331 329 328 327 327 328 328 327 326 325 324 325 326 325 326 328 328 326 326 325 326 325 326 326 324 323 324 323 325 324 322 324 325 324 323 322 322 323 325 326 325 326 327 328 326 322 317 319 319 315 319 313 308 306 305 305 306 307 307 308 307 305
333 332 331 333 334 333 333 332 331 331 330 329 327 327 328 329 330 330 332 332 331 331 332 330 329 328 328 328 328 328 327 326 325 325 325 325 326 326 328 328 327 326 326 325 325 324 321 322 322 321 322 322 323 325 324 324 323 324 324 323 320 321 322 324 325 324 325 325 325 326 320 318 318 316 310 310 309 308 307 309 308 311 310 307 306
332 332 332 332 331 330 330 330 329 328 324 320 317 315 317 323 328 328 328 327 328 329 330 329 328 327 327 328 327 327 326 323 319 318 317 317 323 324 325 325 324 326 322 322 324 324 323 321 321 322 321 321 322 322 321 321 321 321 322 323 320 320 321 321 322 324 324 324 325 325 325 327 325 326 326 325 323 320 318 313 315 311 307 304 304
330 330 329 329 328 329 328 327 327 326 323 319 311 305 304 311 320 325 326 326 326 327 327 326 326 326 326 326 325 323 321 318 315 311 309 310 311 317 321 324 324 323 323 323 323 324 323 321 320 320 319 319 320 321 321 322 322 322 320 320 318 319 319 319 320 323 325 324 322 321 323 325 324 323 324 324 323 321 321 322 313 308 305 303 303
328 328 327 326 324 324 323 322 321 320 319 313 303 297 298 300 311 323 324 325 326 326 325 325 324 325 325 324 323 321 321 318 316 309 309 307 307 308 310 313 315 321 322 322 322 323 320 320 320 320 319 318 320 320 319 318 319 318 317 317 316 316 316 314 312 318 323 321 320 318 319 322 322 320 320 320 320 320 321 316 304 305 304 303 303
323 323 323 322 322 322 322 321 320 320 317 307 296 298 297 297 303 318 323 323 323 323 324 323 323 323 323 323 323 322 321 318 320 320 315 310 308 308 307 308 307 305 304 315 320 320 321 320 319 319 318 317 317 317 315 316 315 316 316 316 315 315 314 313 313 312 319 321 317 316 316 321 320 318 317 317 318 319 319 309 304 304 304 303 303
322 320 319 319 319 320 320 318 319 319 318 304 296 298 297 296 298 308 322 324 321 320 321 320 320 321 321 321 322 322 319 312 316 319 320 319 312 312 311 309 308 303 297 298 303 318 321 319 318 318 317 316 315 316 315 314 316 314 315 314 315 314 314 313 313 314 317 319 316 314 314 317 317 315 315 316 316 317 317 306 304 305 304 304 303
318 316 316 316 317 317 318 318 317 318 317 307 295 296 297 296 297 302 322 320 319 319 319 319 318 319 319 320 319 319 319 319 318 318 320 321 320 320 320 321 318 314 307 303 302 305 314 317 316 315 317 316 314 314 315 315 313 312 312 312 314 313 312 312 315 315 316 317 313 312 311 313 314 314 312 315 316 315 317 310 303 303 304 303 304
316 315 314 314 315 316 317 317 316 316 315 298 294 295 296 297 298 305 321 318 318 318 318 318 318 318 319 318 318 317 317 317 314 311 317 319 319 319 317 316 316 316 316 316 317 317 317 317 316 315 316 316 316 315 315 315 314 313 314 312 313 313 314 315 316 314 314 316 314 313 309 312 314 312 313 313 314 313 315 305 304 304 302 303 303
317 317 317 317 316 316 317 317 317 315 315 294 294 294 294 295 295 318 319 318 317 317 317 317 317 318 318 318 317 316 317 316 309 297 301 311 319 318 317 316 316 315 315 309 300 301 310 314 316 316 317 313 303 311 309 310 313 315 315 316 317 315 312 311 309 312 311 314 314 311 309 310 313 310 310 312 312 312 313 315 304 304 304 303 303
316 316 317 317 317 317 317 317 317 316 317 301 294 294 294 293 302 320 320 319 318 317 317 317 317 317 317 317 318 316 315 314 302 293 294 301 318 318 317 317 316 316 316 315 299 295 295 294 293 294 294 294 295 295 294 294 301 307 313 314 311 311 310 308 308 309 309 312 313 313 311 309 311 310 309 311 311 311 311 312 316 304 303 303 302
316 317 318 317 318 318 318 317 315 317 317 306 294 295 294 294 301 319 318 317 318 317 316 317 317 315 313 309 312 316 314 313 296 293 293 305 317 316 316 316 315 315 314 316 316 312 295 295 294 295 295 295 295 295 295 295 295 301 314 309 311 310 309 308 305 307 308 310 311 313 311 308 310 311 308 311 311 311 310 311 312 312 301 302 301
318 318 315 316 316 319 319 318 310 317 318 311 291 292 292 292 304 318 315 315 314 315 315 313 315 315 314 313 310 311 314 307 292 294 293 304 317 315 315 315 313 313 313 316 315 315 316 315 313 309 307 301 305 312 312 296 297 303 315 315 314 310 307 307 307 307 305 309 313 316 309 309 309 310 309 307 305 308 311 311 311 311 312 312 313
Wind_Speed
5 5 4 4 4 4 3 4 4 4 5 4 4 4 4 3 3 3 3 3 4 4 3 4 3 4 4 6 5 6 5 6 6 8 7 7 7 8 9 9 9 10 10 10 9 10 11 11 10 11 11 11 11 10 10 10 10 11 11 10 10 11 11 10 11 11 11 11 11 11 11 11 11 11 11 11 10 11 11 11 11 10 11 11 10
4 4 5 4 4 4 3 3 4 4 5 4 4 3 3 3 2 2 3 2 3 4 2 3 4 3 4 4 4 5 4 5 6 6 7 7 7 7 9 8 8 8 8 9 10 8 9 10 10 10 11 11 11 10 10 10 10 10 10 10 10 10 10 10 10 11 11 10 11 11 10 11 11 11 11 11 10 10 10 10 10 11 11 10 10
3 2 4 5 4 4 4 4 4 5 4 5 4 4 2 2 2 1 1 2 3 3 2 3 3 4 3 3 4 4 5 3 6 6 7 6 6 6 8 7 8 8 9 8 8 9 8 9 9 9 10 11 11 11 10 10 10 10 9 10 10 10 9 9 10 9 10 10 9 9 10 10 10 9 10 10 10 9 9 10 10 10 10 10 10
2 4 4 4 5 5 4 4 4 5 5 4 4 3 4 2 1 1 1 1 2 3 2 2 3 3 3 4 4 3 4 3 5 6 6 5 6 6 6 7 8 8 7 7 7 7 7 8 7 8 9 9 10 10 11 10 10 10 10 9 9 9 9 9 9 9 9 9 9 9 9 9 9 9 9 9 9 9 9 9 9 9 9 10 9
1 2 3 4 4 4 5 4 4 5 5 5 6 4 3 3 2 1 1 0 0 2 2 2 2 2 2 4 3 2 3 4 4 4 6 5 5 5 5 6 7 8 7 6 7 6 5 6 8 6 7 8 9 9 10 11 9 10 9 9 9 9 9 9 9 9 9 9 9 8 8 8 8 8 9 9 9 9 9 8 8 9 9 9 9
2 2 3 4 4 4 4 5 5 5 5 5 5 5 4 3 2 2 1 3 2 2 2 2 2 3 2 3 2 3 2 4 3 3 3 5 4 3 4 4 5 6 6 7 5 5 5 4 4 6 7 7 7 8 9 10 10 9 10 9 9 9 9 8 7 8 9 9 8 8 8 8 8 8 8 8 8 8 8 8 8 8 8 8 8
2 2 3 5 5 5 3 4 4 5 6 7 6 5 4 4 4 3 2 2 2 1 1 2 2 1 2 1 2 2 2 2 3 2 3 4 2 5 3 3 3 4 6 6 7 6 4 5 4 3 5 6 6 6 7 8 9 10 9 9 8 8 9 9 9 8 8 8 7 7 8 8 8 7 8 7 7 7 7 7 7 7 7 6 6
1 2 2 5 6 5 4 3 4 5 5 5 6 6 5 4 4 4 3 3 2 3 2 1 1 2 3 2 1 1 1 2 2 1 3 1 4 3 3 2 3 3 0 4 5 7 6 5 4 4 3 2 4 3 5 7 7 8 9 8 7 7 8 8 8 9 9 8 7 7 7 8 7 7 7 7 7 7 7 7 7 7 6 6 6
1 1 2 4 5 5 5 3 5 5 5 5 6 5 4 4 4 4 3 3 3 4 2 2 2 2 3 3 2 2 2 0 1 1 2 1 3 4 3 3 3 4 3 2 4 6 8 7 6 5 4 4 4 4 4 4 6 7 7 8 8 8 6 6 7 8 8 8 8 8 8 8 8 7 7 7 8 8 8 7 7 7 7 7 7
1 1 1 3 5 6 5 4 4 3 5 5 5 5 5 5 4 4 4 4 4 3 4 3 3 2 2 2 2 2 1 2 0 1 1 1 2 2 2 3 4 4 3 3 3 4 6 8 9 8 8 6 5 6 5 6 6 6 7 8 8 8 8 7 7 7 8 8 8 9 9 8 8 9 9 8 8 8 9 9 8 8 8 8 8
2 1 2 3 4 5 6 4 4 3 5 5 4 5 5 4 4 4 3 4 4 3 4 1 2 1 2 3 2 3 2 2 2 2 2 1 1 1 2 3 3 4 3 3 4 4 4 6 7 7 9 12 9 7 7 7 7 8 8 8 9 8 8 8 8 8 9 9 9 10 10 10 10 10 10 10 10 9 9 10 10 9 9 10 9
2 1 2 2 3 3 3 4 5 4 4 5 5 4 5 5 5 4 4 5 5 4 3 4 3 3 2 2 3 3 4 3 4 4 3 3 3 3 3 4 4 3 4 4 3 5 5 4 4 3 6 12 12 10 9 9 8 8 10 10 10 10 10 10 10 9 9 10 10 10 10 10 11 11 11 11 11 11 11 10 11 11 10 10 10
1 1 2 2 3 3 4 4 5 6 4 4 4 6 5 4 4 4 4 5 4 3 3 3 3 3 3 4 4 4 5 5 6 5 4 4 3 4 3 3 3 4 4 3 4 4 5 5 4 3 4 8 10 13 12 11 10 10 11 12 12 12 11 11 11 11 11 11 11 11 11 11 11 12 12 12 11 12 12 11 11 12 11 11 10
1 0 1 3 3 3 3 3 4 4 4 4 5 5 5 5 4 4 5 4 4 3 2 3 5 5 4 4 5 5 5 6 6 6 6 5 4 5 4 5 5 4 3 4 5 5 6 5 5 4 4 4 6 9 9 10 11 13 13 12 13 13 14 13 12 12 13 13 12 12 12 12 12 12 12 12 12 12 12 12 12 12 12 12 11
2 3 3 3 3 2 3 2 4 4 4 4 5 5 5 5 5 5 4 5 4 2 3 4 5 2 4 4 5 5 5 5 5 7 5 4 4 5 4 5 6 5 5 4 5 5 5 5 5 5 5 5 4 5 7 9 9 18 15 15 14 14 14 14 14 14 13 15 14 13 12 12 13 13 13 13 12 12 12 12 12 12 12 12 12
1 2 2 3 2 3 3 3 3 4 5 5 5 6 5 6 6 6 5 5 5 4 4 4 4 2 4 5 3 3 5 4 3 2 4 5 5 5 5 4 5 6 5 5 5 5 5 4 5 5 5 6 5 5 5 5 9 15 18 16 16 15 15 15 15 15 14 14 14 14 13 13 13 13 13 13 13 13 13 13 13 13 12 12 13
1 1 2 3 1 2 4 4 4 4 6 5 6 6 7 7 6 5 5 6 6 3 4 4 5 4 5 2 4 5 5 4 3 5 4 4 4 4 4 4 5 5 5 5 5 5 6 6 6 6 7 7 7 6 6 6 7 9 12 16 16 16 16 16 16 15 15 15 14 14 15 14 14 14 13 13 13 13 13 14 14 13 14 13 13
2 2 1 1 2 1 2 5 5 4 4 6 5 6 7 7 6 6 7 6 6 5 4 3 5 5 5 5 1 3 5 3 4 4 3 5 5 4 3 4 4 4 4 4 5 5 5 5 6 6 7 7 7 7 7 7 7 7 7 11 18 17 16 17 16 16 16 15 15 15 14 15 15 14 14 14 14 14 14 14 14 14 14 14 14
2 2 1 1 1 1 2 4 4 5 5 5 6 6 7 7 6 6 6 5 5 6 7 5 4 6 6 7 6 6 6 5 6 5 6 3 4 4 4 3 3 4 5 5 5 5 4 5 6 7 7 7 7 7 7 7 9 9 9 7 17 18 17 17 16 16 16 16 16 16 16 16 15 15 15 15 15 15 15 15 15 15 15 15 15
2 2 2 2 1 2 2 2 3 4 5 6 6 6 6 6 3 6 5 5 5 6 7 6 6 5 5 6 7 7 7 8 8 8 7 6 6 6 5 4 3 4 5 5 4 4 4 4 6 7 6 7 7 7 7 7 8 9 9 11 12 17 18 18 17 17 17 17 16 17 17 17 17 17 16 16 16 16 16 16 16 16 16 16 16
2 2 2 1 1 2 2 3 3 3 4 5 5 6 7 7 5 5 6 6 6 6 7 7 6 6 5 7 7 7 7 7 7 7 7 7 8 6 5 3 4 5 5 5 6 6 5 4 4 5 5 5 6 7 6 6 6 7 9 14 16 16 17 18 18 17 17 17 17 18 18 18 18 18 18 17 17 17 17 17 17 17 17 17 17
4 3 2 2 3 2 4 4 4 4 4 4 3 4 5 6 7 7 7 8 6 6 7 7 7 6 7 6 7 6 7 7 7 7 7 8 8 7 6 6 7 4 3 4 7 7 7 7 7 8 6 6 6 6 6 6 6 7 8 11 16 17 17 17 18 18 18 18 18 19 19 19 19 19 19 19 19 18 18 18 18 18 18 18 19
3 3 3 3 2 3 3 3 3 3 4 4 5 5 6 7 7 7 7 8 7 7 7 8 7 7 8 7 7 8 7 8 7 6 7 7 7 7 7 7 7 7 6 6 4 6 7 7 7 8 8 7 7 7 6 6 7 7 5 13 14 16 17 18 18 18 18 19 19 20 20 20 20 20 20 20 20 20 20 19 19 17 18 20 20
4 2 3 4 3 3 3 4 3 3 4 4 4 5 5 5 6 5 6 7 7 7 7 8 9 8 8 8 8 8 8 8 7 8 7 7 7 8 7 7 8 7 7 7 7 6 8 8 8 8 7 7 8 8 7 6 7 9 8 11 13 15 16 16 17 18 18 19 19 20 21 21 21 21 21 21 21 21 21 21 20 19 17 18 20
3 3 4 5 3 4 4 3 3 3 4 4 3 4 4 4 5 6 6 6 6 6 6 7 8 8 7 7 7 8 8 8 7 8 7 6 7 8 8 9 9 8 6 7 7 6 6 6 6 7 7 7 7 7 7 7 7 11 11 9 14 14 15 16 16 17 18 18 18 19 20 21 22 22 22 22 22 22 23 23 22 21 19 18 19
3 3 3 3 4 4 4 4 4 4 4 4 4 4 3 5 6 6 7 6 6 6 6 7 7 8 8 8 8 8 8 7 7 6 7 7 7 7 7 7 9 9 8 7 8 8 7 7 7 6 6 7 7 7 7 6 6 12 12 5 11 14 15 15 16 16 17 16 17 17 18 19 20 21 21 22 22 22 23 23 22 21 20 20 21
3 3 3 3 3 4 3 5 5 5 4 4 4 4 4 4 4 4 5 5 6 6 6 7 7 7 8 7 8 8 7 7 7 7 7 7 6 6 6 8 8 8 9 9 8 8 8 7 6 8 7 6 6 7 7 8 0 12 8 5 4 12 13 14 14 15 15 16 16 17 17 18 18 19 20 21 22 22 21 20 20 20 21 21 20
4 3 3 4 4 5 6 7 6 6 6 6 6 5 5 5 5 4 5 4 5 7 7 7 8 8 7 7 7 8 7 7 7 6 6 7 7 6 6 7 9 10 9 9 8 9 8 8 7 7 7 7 6 6 5 2 7 11 7 4 5 5 13 12 13 14 15 16 16 16 17 17 18 18 19 20 21 20 19 19 20 22 23 22 21
3 3 4 3 4 5 7 7 5 6 7 6 6 6 5 5 5 5 5 5 5 6 5 6 6 6 7 8 7 7 7 7 6 7 6 6 7 7 7 8 9 10 9 9 8 8 7 8 7 4 4 6 5 5 5 6 1 8 6 6 6 6 9 13 12 13 14 15 15 16 16 17 17 18 18 19 19 18 18 19 22 22 23 23 22
3 3 3 4 5 5 6 7 7 7 7 7 7 7 6 5 6 6 6 5 5 5 5 5 5 4 5 7 7 7 7 7 7 7 7 7 7 8 8 7 7 9 8 10 9 7 7 7 6 6 5 4 5 5 5 6 9 1 7 9 7 7 12 13 13 14 14 14 14 15 17 17 17 18 18 18 17 18 19 21 22 22 23 22 20
5 3 4 6 5 5 5 6 6 7 7 7 7 7 8 7 6 7 7 6 6 6 6 5 5 5 5 6 6 6 6 6 6 6 6 6 6 7 8 7 8 8 9 8 9 8 7 7 7 8 7 6 5 5 5 6 4 2 6 7 8 2 8 11 13 14 15 15 15 15 15 16 18 19 19 18 19 19 20 21 20 20 20 19 19
3 4 5 6 5 5 4 4 5 6 6 6 7 8 7 7 7 7 8 8 9 8 8 7 6 6 6 6 6 5 5 6 6 6 6 7 6 7 7 7 7 7 7 8 9 9 7 7 7 7 8 7 7 7 8 7 3 11 9 8 8 3 7 8 16 17 16 16 15 15 14 15 16 18 18 19 19 19 19 18 16 15 15 16 17
4 4 5 6 6 4 5 5 5 4 4 5 5 5 7 8 8 9 9 10 10 9 9 9 8 8 8 8 7 7 6 6 5 5 6 8 8 6 7 6 6 6 6 7 9 9 7 6 6 6 8 8 8 8 9 8 9 8 9 8 8 8 8 8 7 15 17 15 15 14 14 14 13 14 15 15 15 14 13 13 13 13 13 14 14
5 6 6 6 5 5 6 7 6 5 5 5 5 6 6 7 7 7 8 9 10 11 9 9 9 8 7 8 9 9 8 7 7 8 8 9 9 8 4 4 7 9 9 10 9 8 10 8 8 8 9 9 10 8 8 8 8 8 11 10 8 9 9 8 9 8 17 15 14 13 12 12 12 12 12 12 13 14 14 14 14 14 14 14 14
5 5 5 5 6 6 6 5 6 6 5 7 5 7 8 6 6 7 6 6 6 7 8 8 9 10 9 6 3 6 8 9 9 9 9 9 8 7 9 9 10 10 10 10 9 10 10 9 8 9 9 9 9 9 9 9 9 8 9 9 8 8 8 8 7 7 10 13 11 10 11 11 11 11 11 11 12 13 14 14 14 14 14 13 13
5 4 5 6 5 6 7 8 8 7 7 7 5 5 8 10 8 6 4 5 6 4 7 8 8 7 6 6 6 8 6 6 8 6 7 9 8 9 11 11 10 11 10 10 11 10 10 10 9 9 9 8 8 8 8 8 8 8 8 8 8 9 9 8 8 8 4 9 8 9 10 10 10 11 12 13 13 13 13 13 12 12 12 13 13
3 4 4 4 5 5 5 6 7 7 6 5 5 5 5 4 5 6 6 6 6 7 9 10 10 9 7 8 8 9 10 9 9 9 9 10 10 8 8 9 10 8 10 9 8 10 10 11 10 9 9 8 8 8 8 9 9 9 9 8 8 8 8 8 8 8 5 9 10 12 11 11 12 13 13 13 13 13 13 11 11 12 12 12 12
2 2 3 2 3 4 4 5 4 3 2 3 3 4 6 6 5 6 6 7 8 8 9 8 8 8 6 5 6 9 9 8 8 9 9 11 11 11 12 12 9 8 10 10 10 10 11 11 11 10 8 9 8 8 8 6 6 7 7 9 9 9 8 6 6 6 6 7 6 5 8 10 13 11 11 11 11 11 9 9 9 10 10 11 11
1 2 2 3 1 5 4 3 4 4 4 4 4 3 4 4 5 5 5 8 6 5 6 6 5 5 5 6 7 7 6 6 7 7 8 9 9 11 9 9 9 8 7 8 9 11 10 10 9 9 9 8 8 8 7 7 8 8 9 9 8 6 6 7 8 8 8 8 8 9 8 8 8 8 6 7 9 6 4 5 7 7 7 8 9
2 3 3 2 2 3 4 4 5 4 3 3 3 4 4 4 5 5 5 5 6 5 4 4 3 3 4 5 5 6 6 5 3 4 5 6 7 7 7 6 7 8 8 8 9 10 10 9 9 9 8 8 8 7 8 7 7 6 5 6 8 8 8 8 9 9 8 7 8 8 6 8 9 11 11 12 1 2 3 8 8 4 1 2 3
2 3 3 3 3 3 3 4 4 3 4 5 5 6 6 7 5 6 5 5 6 5 4 3 2 3 3 3 3 3 5 8 9 7 6 4 4 5 5 5 6 6 7 8 7 8 8 9 10 8 8 9 8 8 7 6 5 5 6 6 7 7 8 9 9 9 7 7 8 7 7 6 7 7 7 5 6 6 6 4 4 7 8 8 7
4 4 3 2 2 2 2 3 3 3 4 4 9 11 8 6 7 6 5 5 5 4 4 3 3 3 1 2 3 7 8 8 8 6 5 5 5 4 4 5 6 7 7 8 8 8 7 8 8 7 8 8 8 7 7 7 6 7 8 8 9 9 9 9 9 4 4 6 7 8 8 6 6 7 7 5 3 3 6 4 6 7 8 7 6
4 4 4 4 4 5 5 5 5 5 4 6 10 8 8 7 7 5 5 4 4 4 4 3 3 3 4 1 4 2 1 3 4 5 3 3 2 3 4 5 5 4 6 7 7 7 7 7 7 7 7 8 7 6 6 5 5 5 6 7 7 7 8 8 8 2 6 5 6 8 8 3 4 7 7 7 5 5 5 5 8 7 7 6 6
5 4 4 5 5 5 5 5 5 4 4 7 9 9 8 7 7 6 5 3 2 3 3 2 3 3 2 1 0 1 1 4 3 3 4 3 1 3 5 7 8 8 6 3 5 6 6 7 7 6 6 4 4 4 4 5 6 7 8 7 7 7 7 7 6 7 5 6 7 8 8 2 4 4 6 2 5 5 2 6 3 3 5 6 6
4 5 6 5 5 5 4 5 5 5 5 8 10 9 9 7 8 7 6 3 3 2 3 3 3 2 3 3 2 2 1 2 4 1 2 4 5 5 9 9 9 8 6 4 4 3 4 5 5 5 1 3 6 3 3 5 6 6 6 5 5 5 5 6 6 6 6 7 8 7 7 3 4 5 6 2 3 5 2 7 3 2 3 4 4
5 6 6 6 5 5 5 5 5 5 5 7 9 9 9 10 9 8 2 2 2 3 3 3 3 4 4 4 3 0 1 1 2 4 2 4 4 9 8 5 4 8 7 6 7 5 2 3 4 4 1 2 4 3 3 3 5 5 5 6 6 5 6 6 6 5 4 4 6 7 7 1 2 5 5 3 3 3 4 7 6 2 2 3 4
6 6 6 6 6 6 5 5 5 5 5 6 7 9 9 10 10 9 3 2 1 2 2 2 2 2 2 2 2 2 2 2 3 5 6 2 2 1 1 1 1 1 1 1 3 3 2 1 1 1 1 1 1 2 3 3 3 4 4 5 5 5 5 7 2 2 3 1 4 6 6 2 3 4 3 3 4 5 1 7 5 4 1 3 3
5 5 5 5 5 6 5 5 4 5 4 4 6 7 9 10 11 8 2 1 1 1 1 1 2 1 1 1 1 2 2 3 4 8 9 8 3 2 2 2 3 2 2 3 3 2 3 5 4 5 5 6 6 4 3 4 4 4 5 6 6 4 5 5 3 3 3 0 2 5 5 4 2 4 4 3 4 4 3 2 7 5 2 1 2
4 4 4 4 4 4 4 4 4 3 4 3 2 5 7 10 10 2 1 1 2 2 2 1 1 1 1 1 1 2 2 3 4 9 11 13 3 1 1 1 1 2 3 4 6 6 4 1 2 2 3 1 4 2 3 5 5 6 6 7 2 4 6 5 4 3 2 1 1 3 5 4 3 4 4 3 2 4 2 1 4 8 6 3 3
4 3 2 2 2 2 2 3 3 2 3 4 2 2 6 9 9 5 1 2 0 1 1 1 1 2 4 4 7 2 3 3 3 7 10 10 4 0 1 2 2 2 3 2 4 5 7 6 6 6 6 5 6 7 8 6 7 7 6 5 4 6 6 3 4 4 2 4 2 0 4 3 3 3 4 3 3 2 3 2 2 5 9 6 5
1 1 3 2 2 2 0 2 2 4 1 5 5 3 4 5 7 5 2 1 1 1 1 2 1 2 4 4 1 5 3 3 1 6 8 8 5 1 2 2 1 1 2 2 1 3 4 5 5 5 5 8 8 7 7 11 8 9 5 4 5 5 5 4 4 4 7 2 3 1 4 3 3 3 3 3 3 1 2 2 2 3 1 3 6
Wind_Direction
155 155 158 140 143 152 165 164 169 167 154 167 156 150 141 148 135 126 115 113 115 103 104 93 99 93 93 85 78 79 74 78 76 74 73 79 82 89 89 88 86 88 91 88 92 98 97 99 102 102 102 102 102 99 99 104 106 106 104 102 104 107 112 115 110 110 113 110 111 111 108 108 107 108 108 110 112 117 122 123 118 112 111 112 112
155 172 160 154 151 148 165 165 175 179 171 166 163 169 154 139 150 115 106 112 91 91 112 129 110 106 80 90 82 84 93 83 80 85 88 95 98 102 96 94 92 95 95 98 102 94 96 106 108 105 107 110 107 106 107 106 105 106 110 114 116 120 121 120 117 116 118 117 115 115 114 114 118 119 120 121 121 120 111 110 114 114 114 113 111
156 174 167 166 157 165 175 172 178 190 193 168 173 175 183 147 120 76 86 56 75 82 94 118 126 110 105 89 90 79 75 92 90 86 87 87 100 104 110 102 88 90 82 78 82 94 95 98 107 111 111 111 112 111 110 116 119 119 121 123 126 127 122 120 124 119 115 119 116 115 117 119 117 115 109 106 108 106 112 115 117 120 121 120 118
166 182 178 187 168 178 170 186 186 186 201 181 180 181 184 182 144 149 55 0 78 87 98 126 122 112 117 91 84 88 86 74 84 80 85 101 105 116 119 113 106 97 102 101 104 101 104 100 101 113 116 114 113 117 120 126 130 127 128 130 128 128 129 129 126 130 125 128 130 122 120 123 122 120 124 121 118 118 121 122 122 122 117 115 114
132 253 186 197 173 184 179 190 192 196 198 200 190 190 202 183 191 249 277 131 345 105 108 114 123 120 126 113 104 99 86 70 74 97 94 94 99 108 119 128 119 122 106 97 96 97 98 109 116 112 104 112 119 123 124 126 136 133 133 136 136 134 135 136 136 135 134 125 124 130 131 130 127 128 127 127 125 125 126 129 126 121 120 118 116
241 165 234 200 185 195 187 189 199 191 194 213 209 197 202 208 215 219 189 247 170 165 166 136 139 139 148 118 129 95 105 99 87 92 94 91 76 97 109 122 148 128 123 123 115 117 115 114 109 115 126 122 125 126 128 135 137 140 140 143 145 142 142 142 137 136 136 138 141 144 141 134 133 130 130 132 129 132 135 134 132 124 122 119 117
269 274 236 220 196 193 193 186 194 208 196 207 223 207 204 214 225 223 217 244 252 177 183 153 161 164 136 158 147 130 112 107 110 90 108 95 117 83 86 112 83 137 147 136 138 138 132 124 131 113 116 135 139 138 140 139 144 145 152 154 153 151 149 149 154 153 148 148 148 142 142 141 140 144 143 141 143 140 140 140 137 136 131 134 133
276 250 241 219 203 190 197 176 179 218 227 207 228 222 211 216 217 227 236 231 221 231 186 192 188 183 151 191 137 190 140 136 128 109 84 140 105 119 125 109 119 94 324 136 144 135 150 148 146 147 139 123 126 151 146 150 151 157 155 161 164 160 156 160 157 157 155 156 154 152 150 156 157 156 157 154 153 153 151 150 151 151 154 153 153
207 211 255 223 207 200 186 164 199 199 214 211 221 239 236 215 215 222 239 246 212 243 225 173 225 205 176 192 179 175 219 176 174 111 113 161 169 154 151 126 120 129 179 147 140 141 165 164 160 163 174 175 163 177 178 159 175 164 166 168 179 174 168 169 165 164 167 164 171 169 170 168 171 169 168 170 167 169 167 169 169 173 169 166 164
109 154 230 231 206 201 191 183 200 185 216 208 213 205 213 211 204 212 223 237 249 231 220 194 239 206 226 211 185 198 209 218 252 237 245 181 165 214 143 141 168 175 141 161 149 151 156 172 176 178 179 184 188 198 188 192 191 186 183 189 188 190 178 180 184 182 178 182 181 180 177 180 181 182 181 181 183 182 183 181 184 183 183 179 174
108 165 205 197 208 197 205 179 207 194 203 215 212 212 201 203 212 197 222 242 257 270 292 348 253 269 226 225 185 204 228 240 239 231 220 242 214 222 202 170 184 163 159 178 169 165 170 165 178 189 182 181 186 200 203 210 203 197 195 204 192 206 198 191 191 202 194 196 194 190 189 190 194 194 190 190 191 191 190 191 189 191 189 185 185
119 186 207 196 208 208 195 212 201 203 214 210 208 206 198 189 208 219 217 219 226 241 240 243 242 240 250 259 242 252 234 220 232 229 222 210 203 199 228 189 191 184 179 194 181 170 173 185 204 204 154 174 182 193 198 206 217 213 203 204 209 205 207 205 199 201 204 203 203 201 201 200 201 200 198 196 198 199 198 198 197 196 198 196 196
353 181 202 197 213 195 201 218 209 218 188 228 215 186 194 192 197 222 230 243 224 217 238 239 241 236 205 251 242 241 240 242 249 238 232 219 206 207 207 231 216 190 203 189 189 189 181 190 198 204 186 158 183 190 197 204 208 214 217 212 206 211 214 212 206 199 207 209 209 208 210 209 208 206 205 204 204 205 205 205 206 203 205 208 212
103 84 212 223 205 204 201 209 219 221 222 211 223 201 190 197 204 222 233 240 246 233 209 223 226 257 250 210 222 215 236 243 249 249 242 228 220 206 203 218 219 213 202 189 206 204 207 189 198 200 199 191 182 180 192 200 205 209 213 218 220 214 210 215 216 209 203 209 212 215 216 216 214 214 212 212 211 210 211 212 212 213 214 216 219
138 131 178 184 205 215 219 200 241 197 207 207 210 218 217 219 220 236 238 230 250 238 225 231 275 212 260 300 279 275 196 224 237 252 253 248 227 225 219 214 215 220 199 208 217 209 222 204 198 195 201 211 210 194 192 192 199 190 204 210 215 222 221 216 216 218 214 203 210 216 219 220 221 220 219 219 216 216 216 217 218 219 219 220 220
83 143 113 95 185 205 213 229 217 239 231 209 210 219 212 230 224 232 238 252 238 235 231 233 263 237 252 264 275 238 268 243 248 235 238 239 236 233 224 220 222 207 210 217 211 206 218 219 213 209 207 214 226 213 215 212 151 171 195 206 212 215 220 223 221 221 219 216 214 214 219 223 226 226 225 225 225 222 222 222 223 224 226 225 226
94 341 104 121 137 199 222 213 227 225 236 219 220 233 220 222 235 253 247 255 247 248 233 232 233 245 278 267 252 260 251 276 294 264 246 244 217 231 219 241 229 212 212 217 223 215 212 216 216 213 208 216 219 221 225 219 179 195 193 203 209 213 217 221 223 223 223 223 221 219 215 219 225 228 228 228 227 228 228 227 227 228 228 230 232
180 174 43 73 129 181 222 230 209 226 233 246 233 226 239 237 220 226 244 239 267 248 253 258 263 256 250 269 319 253 301 332 311 290 247 263 283 251 250 234 223 234 226 230 225 224 212 217 210 218 216 216 220 222 221 221 217 204 209 196 204 211 216 220 224 225 225 225 226 224 223 219 220 225 229 229 229 230 230 230 230 230 231 232 234
239 150 160 191 182 200 193 237 226 218 224 241 244 241 236 236 248 239 244 251 234 261 249 244 250 250 253 258 264 259 262 273 273 286 282 276 257 279 256 227 243 246 230 221 219 216 224 238 217 219 210 214 221 225 223 219 217 228 212 207 188 205 213 219 223 226 228 228 227 227 229 229 227 226 226 229 231 230 230 231 230 231 231 232 233
190 210 177 189 201 216 212 249 262 221 220 218 232 239 253 246 256 262 265 275 265 258 267 261 252 258 259 268 255 254 255 264 267 276 286 278 263 230 225 229 248 251 269 263 267 266 239 214 239 227 217 215 216 224 224 223 220 214 215 205 197 200 208 216 220 224 228 230 231 231 230 231 231 231 229 228 231 231 230 231 231 231 231 232 234
219 199 207 237 196 223 228 225 224 246 221 228 223 232 236 256 233 241 244 249 250 258 267 273 265 263 249 245 256 260 261 253 262 267 272 279 273 262 256 213 238 248 242 256 258 244 232 219 251 275 246 218 217 219 218 224 219 218 220 196 202 205 210 214 218 221 226 229 232 233 233 234 233 233 233 231 231 232 232 231 231 232 232 233 235
203 209 226 208 228 218 222 210 211 225 243 241 224 239 246 240 238 240 242 247 248 252 257 263 266 271 267 264 260 262 264 267 254 251 252 255 271 283 286 278 263 253 249 249 253 253 249 236 227 232 235 231 230 217 219 215 216 219 213 183 196 208 213 217 219 222 224 227 230 231 233 234 234 234 234 233 232 232 232 233 231 230 233 236 238
179 192 218 232 212 251 276 225 213 212 236 239 229 234 228 231 239 234 236 237 241 243 246 252 261 262 261 257 248 250 260 268 270 271 273 272 274 275 277 274 281 277 240 242 236 256 260 256 250 254 255 247 238 236 226 217 212 229 139 173 190 206 214 220 225 227 229 228 229 231 231 233 233 234 234 233 233 232 232 234 235 230 227 229 231
195 202 225 231 221 238 233 254 220 220 224 238 240 235 237 236 230 231 232 233 243 247 248 249 249 254 258 264 266 268 264 262 266 268 270 275 278 278 279 280 269 271 263 219 204 244 257 259 257 255 252 255 260 255 249 235 229 178 185 180 194 204 214 220 224 229 231 233 233 233 233 233 233 233 234 233 234 233 233 234 235 235 230 227 228
195 212 197 215 231 214 240 238 236 216 247 263 232 238 249 241 236 227 231 231 225 235 243 244 247 248 249 250 259 262 258 258 257 267 270 273 276 282 280 283 276 271 273 287 274 247 253 253 252 259 258 251 249 247 247 232 257 165 198 182 193 206 216 222 227 229 232 234 236 238 238 239 238 238 237 237 236 236 235 236 237 237 234 231 229
209 210 244 213 186 201 219 238 236 232 228 237 257 254 220 229 217 229 234 231 239 235 239 247 246 246 248 251 248 247 258 275 280 270 267 262 264 274 289 288 286 287 293 284 273 270 253 253 259 255 258 266 271 274 263 261 259 145 189 241 182 201 210 222 228 234 235 236 238 241 243 244 245 245 244 243 242 241 241 240 240 239 238 236 235
225 229 230 236 238 251 227 223 225 234 238 240 237 235 231 248 244 233 242 247 245 244 249 249 245 237 235 243 248 251 258 261 257 261 266 267 262 260 268 282 275 266 271 275 280 266 270 269 267 280 281 281 281 279 275 269 159 120 157 219 253 185 208 211 228 233 237 238 239 240 242 245 246 248 248 248 248 248 247 246 244 243 243 242 241
247 278 254 270 269 250 228 227 231 234 230 234 234 236 219 232 252 244 244 239 240 246 248 248 254 261 257 242 244 253 241 237 250 246 257 274 273 274 265 264 272 274 274 274 275 283 296 295 293 283 284 276 277 278 278 217 263 148 171 245 244 214 188 206 217 230 234 237 238 240 241 243 244 246 248 249 250 251 251 250 249 250 250 248 245
262 241 261 258 265 267 272 269 235 230 239 240 244 241 239 239 245 245 254 261 258 258 255 259 258 254 254 254 251 246 252 258 259 271 264 261 267 271 271 268 269 275 274 272 269 276 273 275 283 278 293 293 267 272 272 265 161 146 222 224 216 243 186 197 210 221 232 235 240 241 244 245 246 246 246 248 250 250 251 251 253 253 253 252 250
250 275 275 263 256 245 250 247 252 249 246 246 250 252 248 243 249 258 255 253 251 251 256 256 256 261 258 261 253 252 254 262 254 244 254 262 263 267 267 261 261 263 271 274 283 281 288 286 276 286 282 277 282 248 248 265 121 221 275 273 273 250 177 191 202 216 223 230 235 242 245 249 251 252 252 251 250 250 251 252 253 253 253 252 251
257 260 266 270 266 257 248 254 244 242 242 245 247 253 255 252 253 260 259 252 250 254 253 255 252 247 249 252 256 256 257 257 265 265 263 258 250 249 250 249 254 255 259 265 268 273 280 283 293 287 284 285 284 291 276 269 178 201 264 267 253 222 159 194 201 211 220 223 231 235 241 245 250 253 255 256 255 253 252 254 255 255 254 252 250
252 263 273 276 280 275 266 260 252 242 240 236 243 245 238 243 249 249 254 256 251 249 251 242 243 244 240 244 241 247 239 237 236 242 248 251 263 271 272 266 252 251 260 266 261 276 265 268 277 277 268 272 275 275 277 272 216 168 264 254 253 225 233 250 196 209 212 220 223 231 234 240 245 249 252 254 256 256 258 261 262 261 259 256 252
263 255 255 265 267 252 258 259 258 252 246 247 245 252 255 250 246 250 256 252 252 253 251 253 250 249 252 256 253 239 233 242 254 250 248 251 244 234 249 260 277 275 255 252 266 273 270 262 263 268 285 287 271 263 268 265 262 251 216 240 253 254 257 257 259 201 209 213 220 222 230 235 240 247 253 259 263 266 271 272 272 271 269 265 261
267 268 262 260 250 240 249 253 252 256 274 277 274 267 267 270 265 262 257 259 261 263 267 261 253 258 258 259 263 270 268 260 253 256 250 243 243 244 236 238 246 249 244 249 244 246 265 268 273 279 278 277 279 267 266 270 276 279 279 280 268 248 240 252 249 242 191 206 208 217 226 234 239 244 249 252 255 259 260 261 262 263 265 266 268
260 267 270 265 266 264 256 248 251 255 244 258 265 265 267 265 268 262 259 262 260 259 257 259 266 268 260 256 279 285 273 266 263 264 271 278 285 269 251 253 253 254 253 247 253 257 262 268 277 280 277 275 274 280 275 269 269 270 270 269 268 267 270 262 252 269 169 183 192 208 222 231 240 244 250 252 256 255 254 255 257 260 262 265 266
278 266 273 265 253 251 251 252 248 248 249 248 249 255 248 247 249 259 255 250 251 265 271 267 270 262 250 251 248 262 270 271 270 282 273 260 251 255 263 265 273 271 257 256 253 261 267 271 267 271 279 279 270 266 277 278 272 264 266 276 280 283 279 271 275 275 164 157 181 212 226 233 235 239 239 245 250 255 257 255 255 257 258 256 256
257 260 234 238 249 251 256 256 252 250 254 253 247 241 252 251 248 247 251 254 251 237 245 249 249 255 266 270 273 268 259 258 272 271 264 256 258 257 254 256 247 254 266 260 253 257 262 267 273 272 275 274 277 285 281 280 282 279 272 265 266 271 275 285 284 272 246 172 208 225 229 228 229 226 232 239 242 245 248 253 256 257 256 257 255
266 280 282 274 279 268 286 301 275 266 233 231 225 215 243 250 249 239 236 241 249 251 254 249 248 246 239 261 266 264 262 260 263 261 262 264 259 256 253 255 263 253 255 259 260 266 267 266 267 274 271 270 273 269 274 274 283 286 281 282 285 283 279 279 286 292 296 289 290 234 210 220 220 222 231 235 239 241 243 249 255 256 259 259 262
301 266 284 288 299 4 355 4 358 10 31 30 26 1 333 324 319 304 292 271 258 259 258 257 254 249 230 244 245 249 257 254 257 266 268 264 255 254 260 264 260 268 264 260 261 257 253 259 264 265 270 267 269 273 266 271 266 276 288 294 292 294 314 307 298 291 286 283 256 218 240 275 297 288 234 222 230 239 255 258 250 251 262 265 270
4 8 355 12 26 48 38 37 36 35 28 24 12 339 314 301 293 288 283 283 278 265 260 270 269 248 242 251 259 264 270 291 317 288 278 283 287 272 271 276 276 264 262 260 263 266 269 269 265 268 268 276 271 268 284 297 299 295 305 301 294 301 305 302 297 298 300 294 290 294 235 224 236 232 235 252 275 66 201 220 203 238 210 0 295
27 31 38 38 56 54 50 45 46 41 46 38 26 356 338 321 296 285 295 297 293 289 297 285 285 304 301 303 312 7 53 71 62 52 46 19 319 301 300 299 292 288 278 267 268 272 276 277 278 280 286 288 290 298 304 295 293 307 309 309 306 301 293 291 291 293 308 300 301 306 302 340 320 313 306 320 53 327 159 300 90 119 48 359 347
75 65 67 55 49 60 60 45 38 34 44 42 11 352 336 321 311 295 288 284 284 285 285 281 278 283 226 230 100 75 62 63 73 66 59 35 23 358 322 311 304 298 291 285 279 284 289 286 289 296 294 295 304 319 321 338 339 325 318 314 303 300 298 293 290 303 34 329 322 307 308 333 324 311 306 309 320 333 323 326 23 356 355 345 342
56 45 42 52 47 35 47 56 52 47 43 26 356 335 330 317 296 285 285 283 284 282 259 266 281 226 242 223 100 113 127 129 130 113 78 59 30 356 28 46 27 310 288 298 302 294 297 299 304 307 311 312 323 335 326 336 326 320 307 300 293 293 291 297 298 305 77 358 313 308 296 324 314 305 309 309 322 309 300 55 31 358 346 350 344
61 63 60 47 45 39 42 53 57 56 57 22 350 348 337 323 305 300 284 286 303 301 319 313 286 303 289 218 116 321 22 352 311 184 160 152 209 111 89 86 77 61 43 355 306 298 308 306 304 307 310 310 322 340 340 318 309 303 293 288 280 287 294 293 294 296 343 351 321 303 293 334 318 319 302 335 316 310 22 79 107 13 342 347 349
81 63 57 52 50 48 48 52 50 48 53 33 348 349 340 337 310 297 290 8 317 339 319 314 323 281 287 285 251 262 77 291 262 301 243 175 170 173 142 127 112 104 96 72 6 324 283 275 286 290 20 314 289 303 344 316 308 296 299 289 303 306 301 288 292 308 329 339 309 298 299 341 317 309 301 345 317 308 144 149 123 74 333 321 333
68 65 61 56 53 52 46 54 58 51 45 20 341 345 341 336 324 310 6 23 3 329 332 333 326 313 311 308 286 240 302 308 347 309 272 262 200 175 177 189 128 132 150 166 185 206 258 284 281 285 17 312 299 325 333 317 309 310 309 305 316 307 304 314 320 319 317 312 315 313 294 346 338 304 294 315 306 276 281 112 116 136 293 310 323
66 63 65 65 57 53 52 51 56 49 52 11 345 343 339 321 313 305 49 349 348 12 2 10 338 9 335 321 326 327 0 2 3 328 305 269 231 236 176 134 234 341 14 40 25 9 42 38 37 289 291 267 312 344 337 334 322 310 315 305 303 304 294 271 226 213 258 71 325 300 299 323 348 302 310 329 313 303 17 123 149 115 341 313 313
64 64 61 57 56 53 46 43 50 57 72 36 339 330 325 315 328 290 60 79 60 78 90 21 4 28 359 353 7 36 30 17 24 331 315 312 278 183 155 152 141 146 106 83 95 36 343 348 359 3 19 41 12 4 357 328 314 312 275 226 230 261 276 282 255 219 299 322 346 312 306 309 22 316 319 317 306 307 306 128 128 105 165 317 320
54 49 52 47 43 44 40 35 28 65 81 100 348 316 312 313 297 283 29 35 67 68 56 99 203 56 18 356 350 55 49 58 14 330 321 321 295 166 159 172 151 161 132 144 170 160 166 227 343 3 1 328 249 217 234 259 283 309 304 283 289 317 286 296 291 263 269 344 308 306 302 303 10 315 307 292 340 302 311 348 137 145 159 184 201
35 15 338 49 14 44 19 24 16 344 93 125 208 280 305 315 312 309 299 90 90 123 130 139 100 104 70 349 323 3 55 60 34 313 317 313 307 1 206 203 178 162 133 148 165 167 180 186 205 228 227 224 235 237 237 238 252 265 297 324 341 296 292 286 299 317 285 244 130 119 274 288 324 283 297 282 250 255 314 66 327 163 151 168 188
354 304 343 337 341 283 35 299 156 281 54 145 171 192 276 309 314 312 329 7 71 356 204 153 183 157 149 164 275 354 27 73 314 303 315 317 312 352 297 243 212 144 107 145 182 171 182 193 186 194 216 217 219 223 199 198 228 248 269 299 302 301 299 311 304 299 275 196 116 240 285 296 293 255 262 276 251 232 328 322 283 341 284 178 158